QPF
0.03 0.03 0.02 0.02 0.03 0.04 0.05 0.07 0.08 0.07 0.07 0.06 0.06 0.06 0.08 0.09 0.09 0.07 0.06 0.06 0.06 0.09 0.12 0.11 0.11 0.10 0.08 0.08 0.08 0.06 0.05 0.04 0.03 0.03 0.06 0.07 0.05 0.03
0.03 0.03 0.02 0.02 0.02 0.04 0.04 0.06 0.08 0.07 0.07 0.04 0.05 0.07 0.08 0.09 0.10 0.08 0.06 0.06 0.07 0.08 0.11 0.13 0.12 0.11 0.10 0.08 0.07 0.06 0.05 0.04 0.04 0.04 0.05 0.07 0.07 0.06
0.03 0.02 0.02 0.02 0.02 0.03 0.05 0.07 0.08 0.07 0.05 0.04 0.07 0.13 0.13 0.12 0.12 0.11 0.08 0.06 0.07 0.08 0.10 0.14 0.15 0.12 0.11 0.10 0.08 0.07 0.07 0.06 0.04 0.04 0.04 0.05 0.06 0.07
0.02 0.02 0.02 0.02 0.02 0.02 0.04 0.04 0.05 0.05 0.04 0.04 0.09 0.15 0.16 0.14 0.15 0.14 0.10 0.08 0.08 0.10 0.09 0.11 0.16 0.17 0.14 0.11 0.10 0.09 0.07 0.06 0.05 0.03 0.03 0.03 0.04 0.07
0.03 0.03 0.02 0.03 0.03 0.02 0.03 0.03 0.03 0.04 0.04 0.04 0.05 0.08 0.12 0.14 0.15 0.15 0.12 0.10 0.08 0.10 0.11 0.12 0.14 0.17 0.17 0.14 0.12 0.11 0.08 0.06 0.05 0.03 0.03 0.03 0.04 0.05
0.03 0.02 0.03 0.03 0.03 0.03 0.03 0.02 0.02 0.03 0.03 0.04 0.04 0.05 0.09 0.11 0.13 0.12 0.13 0.10 0.08 0.09 0.10 0.10 0.12 0.14 0.16 0.17 0.14 0.11 0.09 0.07 0.06 0.04 0.04 0.04 0.03 0.04
0.03 0.02 0.02 0.02 0.02 0.02 0.02 0.02 0.02 0.03 0.04 0.04 0.03 0.04 0.08 0.09 0.12 0.10 0.07 0.06 0.06 0.07 0.08 0.07 0.07 0.09 0.10 0.11 0.13 0.11 0.09 0.08 0.07 0.06 0.05 0.05 0.05 0.04
0.03 0.02 0.02 0.02 0.03 0.03 0.03 0.02 0.02 0.03 0.03 0.04 0.03 0.03 0.05 0.08 0.12 0.11 0.07 0.06 0.06 0.06 0.07 0.06 0.05 0.06 0.08 0.08 0.08 0.09 0.08 0.07 0.07 0.07 0.07 0.07 0.07 0.06
0.03 0.02 0.02 0.02 0.03 0.03 0.03 0.02 0.02 0.02 0.02 0.02 0.03 0.04 0.05 0.05 0.08 0.09 0.07 0.06 0.07 0.07 0.07 0.07 0.06 0.05 0.06 0.07 0.08 0.07 0.06 0.07 0.08 0.08 0.08 0.08 0.08 0.07
0.02 0.01 0.02 0.02 0.02 0.03 0.02 0.02 0.01 0.02 0.02 0.01 0.02 0.03 0.04 0.04 0.06 0.07 0.06 0.04 0.04 0.05 0.07 0.08 0.06 0.06 0.06 0.06 0.09 0.09 0.07 0.07 0.08 0.08 0.07 0.08 0.07 0.06
0.02 0.02 0.02 0.02 0.02 0.02 0.02 0.02 0.01 0.01 0.02 0.03 0.02 0.02 0.03 0.04 0.05 0.05 0.04 0.04 0.03 0.03 0.04 0.05 0.06 0.06 0.06 0.06 0.08 0.12 0.11 0.09 0.09 0.08 0.07 0.07 0.07 0.06
0.02 0.02 0.02 0.02 0.01 0.01 0.01 0.01 0.01 0.01 0.02 0.02 0.03 0.03 0.03 0.04 0.04 0.04 0.03 0.03 0.03 0.02 0.02 0.03 0.04 0.06 0.07 0.07 0.07 0.07 0.10 0.10 0.09 0.09 0.08 0.07 0.07 0.05
0.02 0.01 0.01 0.01 0.01 0.01 0.01 0.01 0.01 0.01 0.02 0.03 0.04 0.05 0.04 0.04 0.04 0.04 0.04 0.03 0.02 0.02 0.02 0.03 0.04 0.06 0.06 0.06 0.07 0.07 0.06 0.07 0.07 0.07 0.07 0.07 0.07 0.05
0.04 0.03 0.02 0.01 0.02 0.02 0.02 0.03 0.02 0.02 0.02 0.03 0.03 0.04 0.04 0.04 0.04 0.03 0.03 0.03 0.03 0.02 0.02 0.03 0.03 0.05 0.07 0.08 0.07 0.07 0.07 0.07 0.07 0.07 0.06 0.06 0.06 0.05
0.08 0.08 0.06 0.05 0.04 0.04 0.04 0.06 0.05 0.04 0.04 0.04 0.04 0.03 0.04 0.04 0.04 0.03 0.03 0.03 0.03 0.03 0.03 0.03 0.03 0.03 0.05 0.07 0.08 0.09 0.10 0.09 0.09 0.09 0.08 0.07 0.07 0.06
0.04 0.06 0.07 0.08 0.08 0.08 0.08 0.10 0.11 0.11 0.11 0.10 0.08 0.07 0.05 0.05 0.04 0.03 0.04 0.04 0.05 0.05 0.05 0.04 0.03 0.03 0.02 0.03 0.04 0.07 0.09 0.10 0.11 0.10 0.09 0.08 0.08 0.09
0.02 0.03 0.03 0.03 0.04 0.06 0.08 0.08 0.08 0.07 0.07 0.07 0.06 0.05 0.04 0.03 0.02 0.01 0.02 0.03 0.04 0.04 0.05 0.04 0.03 0.02 0.02 0.02 0.02 0.04 0.07 0.08 0.10 0.10 0.10 0.09 0.08 0.07
0.02 0.01 0.01 0.02 0.02 0.02 0.03 0.04 0.04 0.04 0.04 0.04 0.03 0.03 0.03 0.03 0.02 0.01 0.01 0.01 0.02 0.03 0.03 0.04 0.04 0.05 0.05 0.04 0.02 0.02 0.03 0.05 0.07 0.08 0.10 0.09 0.08 0.06
0.01 0.01 0.02 0.02 0.02 0.02 0.02 0.02 0.02 0.02 0.02 0.02 0.02 0.02 0.02 0.03 0.02 0.02 0.01 0.01 0.02 0.02 0.02 0.03 0.05 0.05 0.06 0.06 0.04 0.02 0.02 0.03 0.06 0.07 0.07 0.08 0.08 0.06
0.01 0.01 0.02 0.02 0.01 0.02 0.01 0.01 0.01 0.01 0.01 0.01 0.01 0.01 0.02 0.03 0.03 0.03 0.02 0.01 0.01 0.01 0.02 0.03 0.05 0.06 0.07 0.07 0.07 0.06 0.04 0.04 0.05 0.07 0.08 0.06 0.06 0.06
0.01 0.01 0.02 0.02 0.01 0.01 0.02 0.01 0.01 0.01 0.01 0.01 0.02 0.02 0.02 0.02 0.03 0.03 0.02 0.02 0.02 0.02 0.02 0.02 0.04 0.07 0.09 0.09 0.08 0.10 0.10 0.08 0.07 0.06 0.07 0.08 0.07 0.05
0.01 0.01 0.01 0.02 0.02 0.02 0.02 0.02 0.02 0.02 0.02 0.02 0.02 0.02 0.02 0.02 0.02 0.03 0.03 0.03 0.03 0.03 0.02 0.01 0.02 0.05 0.07 0.08 0.08 0.08 0.10 0.08 0.07 0.06 0.06 0.05 0.06 0.06
0.01 0.01 0.02 0.02 0.02 0.02 0.02 0.02 0.02 0.02 0.02 0.02 0.02 0.02 0.03 0.03 0.03 0.03 0.03 0.03 0.02 0.02 0.02 0.02 0.03 0.03 0.04 0.05 0.06 0.07 0.08 0.08 0.05 0.04 0.05 0.05 0.05 0.05
MSLP
1008.08 1008.16 1008.25 1008.30 1008.31 1008.23 1008.08 1007.84 1007.52 1007.15 1006.74 1006.33 1005.92 1005.55 1005.21 1004.92 1004.68 1004.50 1004.37 1004.30 1004.28 1004.29 1004.34 1004.41 1004.48 1004.56 1004.64 1004.73 1004.85 1005.01 1005.24 1005.54 1005.92 1006.37 1006.86 1007.39 1007.92 1008.44
1007.58 1007.57 1007.57 1007.56 1007.52 1007.44 1007.30 1007.11 1006.86 1006.57 1006.25 1005.90 1005.53 1005.16 1004.80 1004.46 1004.16 1003.89 1003.68 1003.53 1003.44 1003.41 1003.42 1003.46 1003.51 1003.57 1003.62 1003.67 1003.73 1003.84 1004.01 1004.27 1004.62 1005.06 1005.59 1006.17 1006.79 1007.42
1007.11 1007.00 1006.91 1006.83 1006.74 1006.65 1006.53 1006.39 1006.22 1006.01 1005.78 1005.50 1005.19 1004.85 1004.49 1004.12 1003.76 1003.44 1003.17 1002.96 1002.82 1002.75 1002.72 1002.73 1002.75 1002.75 1002.74 1002.72 1002.70 1002.72 1002.80 1002.97 1003.26 1003.68 1004.22 1004.86 1005.57 1006.32
1006.65 1006.45 1006.28 1006.13 1006.00 1005.89 1005.80 1005.70 1005.60 1005.47 1005.32 1005.12 1004.87 1004.56 1004.22 1003.85 1003.47 1003.11 1002.80 1002.56 1002.39 1002.28 1002.23 1002.20 1002.16 1002.10 1002.01 1001.88 1001.74 1001.62 1001.57 1001.63 1001.84 1002.21 1002.75 1003.44 1004.25 1005.13
1006.22 1005.95 1005.70 1005.50 1005.34 1005.22 1005.14 1005.08 1005.02 1004.96 1004.87 1004.73 1004.53 1004.27 1003.95 1003.59 1003.21 1002.85 1002.53 1002.27 1002.08 1001.95 1001.87 1001.80 1001.70 1001.56 1001.36 1001.11 1000.82 1000.55 1000.36 1000.28 1000.38 1000.69 1001.21 1001.95 1002.84 1003.85
1005.84 1005.51 1005.22 1004.99 1004.80 1004.67 1004.59 1004.55 1004.52 1004.49 1004.44 1004.34 1004.17 1003.94 1003.64 1003.29 1002.93 1002.58 1002.26 1002.01 1001.81 1001.68 1001.57 1001.46 1001.30 1001.08 1000.77 1000.38 999.95 999.52 999.17 998.96 998.95 999.19 999.69 1000.45 1001.42 1002.55
1005.54 1005.19 1004.88 1004.62 1004.42 1004.28 1004.19 1004.14 1004.11 1004.08 1004.03 1003.93 1003.77 1003.54 1003.26 1002.92 1002.58 1002.24 1001.94 1001.69 1001.51 1001.37 1001.24 1001.10 1000.89 1000.59 1000.18 999.68 999.12 998.56 998.07 997.74 997.63 997.81 998.28 999.06 1000.09 1001.32
1005.34 1005.00 1004.69 1004.43 1004.22 1004.07 1003.96 1003.88 1003.82 1003.75 1003.66 1003.53 1003.34 1003.10 1002.80 1002.47 1002.12 1001.80 1001.51 1001.28 1001.10 1000.97 1000.83 1000.66 1000.42 1000.07 999.60 999.02 998.37 997.72 997.15 996.73 996.56 996.68 997.13 997.92 998.99 1000.28
1005.28 1004.96 1004.67 1004.42 1004.21 1004.03 1003.89 1003.76 1003.64 1003.51 1003.35 1003.16 1002.92 1002.63 1002.30 1001.95 1001.59 1001.27 1000.99 1000.76 1000.59 1000.45 1000.32 1000.15 999.89 999.53 999.04 998.44 997.77 997.09 996.48 996.04 995.83 995.93 996.36 997.14 998.22 999.54
1005.35 1005.06 1004.80 1004.57 1004.36 1004.16 1003.97 1003.79 1003.59 1003.38 1003.13 1002.86 1002.54 1002.19 1001.81 1001.42 1001.04 1000.70 1000.41 1000.18 1000.01 999.88 999.75 999.58 999.35 999.01 998.56 998.00 997.37 996.73 996.16 995.74 995.54 995.64 996.06 996.82 997.88 999.18
1005.55 1005.30 1005.07 1004.85 1004.63 1004.41 1004.18 1003.93 1003.65 1003.35 1003.02 1002.66 1002.26 1001.84 1001.41 1000.98 1000.57 1000.20 999.89 999.64 999.46 999.32 999.20 999.06 998.86 998.59 998.21 997.75 997.22 996.69 996.21 995.86 995.72 995.84 996.25 996.98 997.98 999.21
1005.84 1005.62 1005.42 1005.21 1004.99 1004.75 1004.47 1004.16 1003.82 1003.45 1003.04 1002.60 1002.14 1001.66 1001.18 1000.70 1000.26 999.85 999.51 999.24 999.04 998.89 998.77 998.66 998.52 998.32 998.06 997.72 997.34 996.95 996.61 996.38 996.31 996.47 996.88 997.55 998.47 999.59
1006.18 1006.00 1005.81 1005.61 1005.39 1005.12 1004.82 1004.47 1004.08 1003.65 1003.19 1002.70 1002.20 1001.69 1001.17 1000.67 1000.19 999.76 999.38 999.08 998.84 998.68 998.56 998.47 998.38 998.27 998.12 997.93 997.71 997.48 997.29 997.19 997.21 997.41 997.81 998.43 999.25 1000.24
1006.56 1006.39 1006.22 1006.03 1005.80 1005.52 1005.19 1004.82 1004.40 1003.95 1003.47 1002.97 1002.46 1001.94 1001.42 1000.90 1000.41 999.96 999.55 999.21 998.95 998.75 998.62 998.54 998.49 998.45 998.41 998.35 998.27 998.20 998.16 998.18 998.29 998.53 998.92 999.47 1000.17 1001.01
1006.94 1006.79 1006.63 1006.44 1006.20 1005.92 1005.58 1005.20 1004.78 1004.33 1003.87 1003.38 1002.89 1002.39 1001.89 1001.40 1000.91 1000.45 1000.03 999.66 999.35 999.13 998.97 998.88 998.85 998.86 998.89 998.93 998.97 999.03 999.10 999.22 999.40 999.66 1000.03 1000.51 1001.10 1001.79
1007.34 1007.19 1007.04 1006.84 1006.61 1006.32 1005.98 1005.61 1005.21 1004.78 1004.35 1003.91 1003.46 1003.01 1002.55 1002.09 1001.63 1001.18 1000.75 1000.36 1000.03 999.77 999.58 999.47 999.43 999.46 999.52 999.62 999.74 999.88 1000.03 1000.21 1000.42 1000.69 1001.03 1001.44 1001.94 1002.50
1007.75 1007.61 1007.45 1007.26 1007.02 1006.73 1006.41 1006.05 1005.67 1005.28 1004.89 1004.50 1004.11 1003.72 1003.32 1002.90 1002.48 1002.05 1001.63 1001.24 1000.89 1000.60 1000.38 1000.25 1000.19 1000.20 1000.27 1000.38 1000.53 1000.70 1000.88 1001.08 1001.31 1001.56 1001.86 1002.21 1002.61 1003.06
1008.19 1008.06 1007.91 1007.71 1007.47 1007.18 1006.86 1006.52 1006.16 1005.81 1005.46 1005.12 1004.79 1004.45 1004.11 1003.74 1003.37 1002.98 1002.58 1002.20 1001.84 1001.54 1001.30 1001.14 1001.05 1001.03 1001.08 1001.17 1001.31 1001.47 1001.64 1001.83 1002.03 1002.25 1002.50 1002.79 1003.11 1003.48
1008.68 1008.56 1008.41 1008.21 1007.96 1007.68 1007.36 1007.03 1006.69 1006.36 1006.04 1005.73 1005.44 1005.15 1004.85 1004.53 1004.20 1003.85 1003.49 1003.13 1002.79 1002.49 1002.25 1002.07 1001.96 1001.91 1001.92 1001.98 1002.08 1002.20 1002.34 1002.48 1002.64 1002.82 1003.02 1003.24 1003.50 1003.80
1009.23 1009.11 1008.96 1008.76 1008.51 1008.22 1007.91 1007.57 1007.24 1006.92 1006.61 1006.32 1006.04 1005.77 1005.50 1005.22 1004.92 1004.61 1004.29 1003.97 1003.67 1003.39 1003.16 1002.98 1002.86 1002.80 1002.78 1002.80 1002.85 1002.93 1003.01 1003.10 1003.21 1003.33 1003.47 1003.64 1003.84 1004.08
1009.80 1009.69 1009.54 1009.34 1009.10 1008.81 1008.49 1008.15 1007.82 1007.48 1007.17 1006.87 1006.59 1006.32 1006.05 1005.78 1005.51 1005.23 1004.95 1004.67 1004.42 1004.19 1003.99 1003.84 1003.73 1003.67 1003.63 1003.63 1003.64 1003.67 1003.69 1003.73 1003.78 1003.84 1003.92 1004.03 1004.18 1004.37
1010.39 1010.28 1010.13 1009.94 1009.70 1009.41 1009.09 1008.75 1008.40 1008.05 1007.72 1007.39 1007.09 1006.79 1006.51 1006.24 1005.97 1005.71 1005.46 1005.23 1005.03 1004.85 1004.71 1004.60 1004.53 1004.48 1004.46 1004.44 1004.43 1004.42 1004.40 1004.39 1004.38 1004.39 1004.42 1004.48 1004.57 1004.71
1010.95 1010.84 1010.70 1010.51 1010.28 1010.00 1009.68 1009.34 1008.98 1008.61 1008.24 1007.88 1007.54 1007.21 1006.89 1006.60 1006.32 1006.07 1005.84 1005.65 1005.50 1005.38 1005.30 1005.25 1005.22 1005.21 1005.21 1005.20 1005.19 1005.16 1005.12 1005.07 1005.02 1004.98 1004.96 1004.97 1005.02 1005.10
Thickness
5715 5714 5714 5713 5713 5713 5711 5709 5703 5699 5700 5705 5706 5710 5710 5710 5710 5709 5709 5708 5708 5707 5707 5707 5706 5705 5704 5704 5703 5703 5703 5702 5702 5701 5701 5700 5699 5698
5710 5709 5708 5708 5708 5707 5706 5705 5702 5698 5695 5699 5700 5703 5704 5705 5704 5703 5703 5703 5703 5703 5702 5702 5701 5700 5699 5699 5697 5698 5698 5698 5697 5697 5697 5696 5695 5695
5705 5704 5703 5703 5701 5701 5700 5698 5696 5694 5690 5692 5695 5697 5697 5697 5697 5696 5696 5696 5696 5697 5696 5696 5696 5695 5694 5693 5692 5692 5693 5693 5693 5693 5693 5692 5692 5690
5700 5699 5698 5698 5696 5695 5694 5692 5691 5690 5687 5685 5686 5687 5688 5689 5689 5689 5689 5689 5689 5690 5690 5689 5689 5689 5689 5688 5687 5687 5688 5687 5688 5688 5687 5688 5687 5686
5695 5693 5691 5690 5689 5688 5687 5685 5684 5684 5682 5679 5678 5679 5680 5681 5680 5681 5681 5680 5681 5682 5682 5682 5682 5682 5682 5682 5682 5682 5682 5682 5682 5682 5682 5682 5682 5681
5689 5687 5686 5684 5683 5682 5681 5679 5678 5676 5675 5673 5671 5671 5671 5671 5671 5669 5669 5671 5672 5674 5674 5674 5674 5674 5675 5675 5676 5676 5677 5676 5676 5676 5676 5676 5676 5676
5683 5681 5680 5679 5678 5676 5675 5672 5670 5668 5666 5664 5662 5661 5661 5660 5659 5660 5659 5661 5662 5664 5664 5665 5665 5666 5667 5668 5669 5670 5670 5670 5670 5670 5670 5670 5670 5670
5675 5674 5673 5671 5671 5669 5668 5666 5664 5660 5657 5655 5654 5652 5652 5652 5652 5652 5651 5650 5650 5654 5654 5654 5656 5657 5658 5660 5662 5663 5663 5664 5664 5664 5664 5664 5664 5664
5669 5666 5666 5665 5662 5661 5659 5658 5656 5655 5653 5650 5647 5646 5646 5646 5645 5644 5644 5643 5643 5645 5645 5645 5647 5648 5651 5653 5655 5656 5656 5657 5657 5658 5658 5658 5659 5659
5662 5659 5657 5655 5655 5653 5650 5648 5647 5646 5646 5645 5643 5641 5641 5641 5639 5639 5638 5637 5637 5637 5638 5636 5638 5640 5644 5646 5647 5649 5650 5650 5651 5651 5651 5651 5652 5652
5654 5652 5650 5647 5646 5645 5642 5639 5637 5637 5638 5637 5636 5635 5635 5635 5634 5631 5629 5627 5627 5628 5629 5628 5630 5632 5634 5637 5639 5641 5643 5644 5644 5644 5644 5645 5645 5645
5645 5643 5642 5640 5638 5636 5633 5630 5627 5627 5628 5628 5627 5627 5626 5626 5626 5624 5622 5620 5619 5619 5622 5621 5622 5623 5623 5627 5630 5632 5634 5636 5636 5637 5637 5638 5638 5637
5637 5635 5634 5633 5630 5628 5626 5623 5621 5620 5619 5618 5617 5617 5617 5617 5617 5617 5617 5615 5613 5613 5616 5615 5614 5614 5614 5616 5619 5622 5625 5627 5628 5628 5629 5630 5630 5630
5630 5628 5626 5625 5622 5620 5618 5616 5614 5612 5610 5608 5607 5607 5607 5608 5610 5610 5610 5610 5610 5610 5610 5609 5607 5607 5606 5606 5608 5612 5615 5618 5620 5620 5621 5622 5622 5623
5624 5622 5620 5617 5614 5612 5611 5609 5606 5603 5601 5599 5598 5598 5599 5600 5602 5602 5603 5602 5603 5603 5604 5603 5602 5602 5601 5601 5601 5603 5605 5608 5611 5612 5613 5614 5615 5615
5616 5614 5612 5609 5607 5605 5603 5601 5598 5596 5594 5592 5591 5591 5592 5592 5592 5593 5593 5593 5593 5594 5596 5596 5596 5596 5595 5595 5596 5596 5598 5599 5602 5603 5605 5607 5608 5609
5609 5606 5603 5600 5598 5597 5595 5593 5591 5589 5587 5585 5584 5583 5583 5583 5583 5584 5584 5584 5583 5584 5586 5587 5588 5589 5589 5589 5588 5590 5591 5592 5594 5596 5596 5598 5600 5602
5601 5598 5596 5593 5591 5590 5588 5587 5585 5583 5581 5580 5578 5577 5576 5576 5576 5576 5576 5576 5575 5576 5576 5578 5579 5579 5580 5581 5582 5583 5584 5585 5587 5588 5589 5590 5592 5595
5594 5591 5589 5587 5585 5584 5582 5580 5579 5578 5576 5574 5572 5571 5570 5569 5569 5569 5569 5569 5568 5568 5569 5569 5570 5570 5569 5571 5574 5577 5577 5578 5579 5580 5582 5584 5585 5588
5587 5585 5583 5582 5580 5578 5576 5575 5573 5572 5570 5568 5567 5566 5565 5564 5564 5563 5562 5562 5561 5561 5561 5563 5563 5563 5564 5565 5567 5569 5572 5573 5573 5574 5575 5576 5579 5582
5582 5580 5578 5577 5575 5573 5571 5569 5568 5566 5565 5564 5562 5561 5560 5559 5559 5558 5558 5557 5556 5556 5555 5557 5559 5560 5559 5559 5560 5563 5566 5568 5569 5569 5569 5569 5571 5574
5578 5576 5574 5572 5570 5569 5567 5564 5562 5561 5560 5558 5557 5556 5556 5555 5555 5554 5553 5552 5551 5551 5551 5551 5552 5553 5552 5553 5553 5556 5558 5561 5563 5565 5566 5568 5568 5569
5574 5572 5570 5568 5565 5564 5562 5559 5557 5556 5554 5553 5552 5551 5551 5550 5550 5549 5548 5547 5546 5545 5545 5545 5545 5546 5546 5547 5547 5549 5552 5553 5555 5557 5559 5563 5567 5570